User: anonymous   Login
Location: Columbia
(38.9520°N, 92.3340°W)
Time: 19:28:01
(UTC-05:00)
Language:

Meteor 1-4 Rocket - Orbit

View from above orbital plane
View from above orbital plane
View from above satellite
View from above satellite

Ground track
Ground track

The orbit data is extracted from the following two-line orbital elements,

1  4394U 70037B   17085.83727299 +.00001614 +00000-0 +56745-4 0  9998
2  4394 081.2402 111.5162 0042063 046.5227 313.9493 15.27848962552193
Epoch (UTC): 26 March 2017 20:05:40
Eccentricity: 0.0042063
inclination: 81.2402°
perigee height: 453 km
apogee height: 511 km
right ascension of ascending node: 111.5162°
argument of perigee: 46.5227°
revolutions per day: 15.27848962
mean anomaly at epoch: 313.9493°
orbit number at epoch: 55219

The dashed part of the orbit path shows where the satellite is in the earth's shadow,  

DLR